Regional Weather Roundup
Issued by NWS

Home | Current Version | Previous Version | Graphics & Text | Print | Product List | Glossary On
Versions: 1 2 3 4 5 6 7 8 9 10 11 12 13 14 15 16 17 18 19 20 21 22 23 24 25 26 27 28 29 30 31 32 33 34 35 36 37 38 39 40 41 42 43 44 45 46 47 48 49 50
000
ASUS43 KOAX 281302
RWRNE

WEATHER ROUNDUP FOR NEBRASKA
NATIONAL WEATHER SERVICE OMAHA NE
800 AM CDT SUN AUG 28 2016

NOTES: SATELLITE DATA IS BEING USED TO AUGMENT CLOUD COVER ABOVE
       12000 FEET.
       "FAIR" INDICATES FEW OR NO CLOUDS BELOW 12,000 FEET WITH NO
       SIGNIFICANT WEATHER AND/OR OBSTRUCTIONS TO VISIBILITY.

  * THESE STATIONS DO NOT REPORT WEATHER SUCH AS RAIN...SNOW OR FOG.

NEZ001>004-019>022-054>056-281400-
NEBRASKA PANHANDLE

CITY           SKY/WX    TMP DP  RH WIND       PRES   REMARKS
SCOTTSBLUFF    CLEAR     55  53  93 CALM      30.08R
ALLIANCE       CLEAR     54  53  97 W3        30.06S
CHADRON        CLEAR     56  51  84 CALM      30.01R
KIMBALL        CLOUDY    53  50  90 SW6       30.14R
SIDNEY         CLEAR     55  52  89 SW6       30.12R
$$

NEZ057>060-069>072-079>082-281400-
SOUTHWEST NEBRASKA

CITY           SKY/WX    TMP DP  RH WIND       PRES   REMARKS
NORTH PLATTE   CLEAR     62  61  96 SE3       30.07R FOG
IMPERIAL       CLEAR     60  59  96 S3        30.09R FOG
LEXINGTON      PTCLDY    66  64  92 CALM      30.07R
MCCOOK         PTCLDY    63  62  97 S3        30.09R
OGALLALA       CLEAR     62  60  93 CALM      30.08S FOG
$$

NEZ005>010-023>029-035>040-094-281400-
NORTH CENTRAL NEBRASKA

CITY           SKY/WX    TMP DP  RH WIND       PRES   REMARKS
AINSWORTH      CLEAR     67  66  97 S12       30.03S
BROKEN BOW     MOSUNNY   64  64 100 CALM      30.06S FOG
O`NEILL        SUNNY     69  66  92 S8        30.05S
ORD            MOSUNNY   63  61  93 E3        30.05S FOG
THEDFORD       CLEAR     66  65  95 S9        30.07R
$$

NEZ041-046>049-061>064-073>077-083>087-281400-
SOUTH CENTRAL NEBRASKA

CITY           SKY/WX    TMP DP  RH WIND       PRES   REMARKS
GRAND ISLAND   MOSUNNY   69  67  93 S9        30.08R
AURORA         MOSUNNY   68  68 100 SE5       30.09R
HASTINGS       CLOUDY    68  66  93 S7        30.09R
HOLDREGE       MOSUNNY   67  65  94 S5        30.08S
KEARNEY *      CLOUDY    66  64  94 S6        30.07S
YORK           SUNNY     68  66  94 S6        30.09R
$$

NEZ011>018-030>034-042>045-281400-
NORTHEAST NEBRASKA

CITY           SKY/WX    TMP DP  RH WIND       PRES   REMARKS
NORFOLK        MOSUNNY   69  66  90 S13       30.07R
ALBION         MOSUNNY   66  64  93 SE5       30.08R FOG
BLAIR          SUNNY     70  68  93 SE6       30.10R
FREMONT        MOSUNNY   69  68  96 SE6       30.09S
TEKAMAH        MOSUNNY   65  64  97 SE3       30.09S
WAYNE          MOSUNNY   68  66  96 S8        30.08F
$$

NEZ050>053-065>068-078-088>093-281400-
SOUTHEAST NEBRASKA

CITY           SKY/WX    TMP DP  RH WIND       PRES   REMARKS
LINCOLN        SUNNY     71  66  84 CALM      30.09R
OMAHA EPPLEY   PTSUNNY   71  66  84 SE6       30.09S
BEATRICE       SUNNY     71  68  92 S5        30.09S
FALLS CITY     SUNNY     70  69  97 E5        30.09R
NEBRASKA CITY  SUNNY     70  70 100 CALM      30.10R
PLATTSMOUTH    SUNNY     70  69  96 SE6       30.10R
$$

NEZ044-045-051>053-067-281400-
OMAHA AREA

CITY           SKY/WX    TMP DP  RH WIND       PRES   REMARKS
OMAHA EPPLEY   PTSUNNY   71  66  84 SE6       30.09S
BLAIR          SUNNY     70  68  93 SE6       30.10R
FREMONT        MOSUNNY   69  68  96 SE6       30.09S
MILLARD        SUNNY     70  69  94 CALM      30.09S
OFFUTT AFB     SUNNY     68  68 100 E1        30.08S
PLATTSMOUTH    SUNNY     70  69  96 SE6       30.10R
WAHOO          FAIR      67  65  96 SE3       30.09S FOG
$$




USA.gov is the U.S. government's official web portal to all federal, state and local government web resources and services.